timestamp,surface_pressure_avg,surface_temp_avg,battery_voltage,lat,long
2018-03-22 00:00:00+00:00,295.8947,1.35,12.81,47.84626,-54.09684
2018-03-22 00:10:00+00:00,307.493,1.3,12.73,47.84626,-54.09684
2018-03-22 00:20:00+00:00,310.4447,1.3,12.81,47.84626,-54.09684
2018-03-22 00:30:00+00:00,312.148,1.3,12.81,47.84626,-54.09684
2018-03-22 00:40:00+00:00,321.6547,1.3,12.81,47.84626,-54.09684
2018-03-22 00:50:00+00:00,328.4414,1.3,12.81,47.84626,-54.09684
2018-03-22 01:00:00+00:00,332.263,1.4,12.73,47.84626,-54.09684
2018-03-22 01:10:00+00:00,339.9813,1.44,12.73,47.84626,-54.09684
2018-03-22 01:20:00+00:00,352.5513,1.4,12.81,47.84626,-54.09684
2018-03-22 01:30:00+00:00,355.2064,1.4,12.81,47.84626,-54.09684
2018-03-22 01:40:00+00:00,356.5947,1.4,12.81,47.84626,-54.09684
2018-03-22 01:50:00+00:00,361.9829,1.4,12.81,47.84626,-54.09684
2018-03-22 02:00:00+00:00,365.9329,1.42,12.73,47.84626,-54.09684
2018-03-22 02:10:00+00:00,366.5196,1.45,12.73,47.84626,-54.09684
2018-03-22 02:20:00+00:00,365.5995,1.4,12.81,47.84626,-54.09684
2018-03-22 02:30:00+00:00,363.2846,1.4,12.81,47.84626,-54.09684
2018-03-22 02:40:00+00:00,364.7512,1.4,12.81,47.84626,-54.09684
2018-03-22 02:50:00+00:00,367.7112,1.4,12.81,47.84626,-54.09684
2018-03-22 03:00:00+00:00,359.4012,1.4,12.73,47.84626,-54.09684
2018-03-22 03:10:00+00:00,351.1213,1.4,12.65,47.84626,-54.09684
2018-03-22 03:20:00+00:00,359.188,1.41,12.73,47.84626,-54.09684
2018-03-22 03:30:00+00:00,363.6979,1.43,12.73,47.84626,-54.09684
2018-03-22 03:40:00+00:00,352.3546,1.43,12.81,47.84626,-54.09684
2018-03-22 03:50:00+00:00,349.7662,1.4,12.81,47.84626,-54.09684
2018-03-22 04:00:00+00:00,360.4462,1.4,12.73,47.84626,-54.09684
2018-03-22 04:10:00+00:00,359.9129,1.4,12.65,47.84626,-54.09684
2018-03-22 04:20:00+00:00,345.548,1.4,12.73,47.84626,-54.09684
2018-03-22 04:30:00+00:00,341.153,1.39,12.73,47.84626,-54.09684
2018-03-22 04:40:00+00:00,341.0496,1.4,12.81,47.84626,-54.09684
2018-03-22 04:50:00+00:00,335.4413,1.4,12.81,47.84626,-54.09684
2018-03-22 05:00:00+00:00,324.4413,1.4,12.73,47.84626,-54.09684
2018-03-22 05:10:00+00:00,313.3196,1.4,12.65,47.84626,-54.09684
2018-03-22 05:20:00+00:00,310.0863,1.4,12.73,47.84626,-54.09684
2018-03-22 05:30:00+00:00,304.7114,1.4,12.73,47.84626,-54.09684
2018-03-22 05:40:00+00:00,290.823,1.4,12.73,47.84626,-54.09684
2018-03-22 05:50:00+00:00,276.8614,1.39,12.81,47.84626,-54.09684
2018-03-22 06:00:00+00:00,273.0748,1.3,12.73,47.84626,-54.09684
2018-03-22 06:10:00+00:00,269.4664,1.3,12.65,47.84626,-54.09684
2018-03-22 06:20:00+00:00,253.8114,1.3,12.73,47.84626,-54.09684
2018-03-22 06:30:00+00:00,242.8448,1.2,12.73,47.84626,-54.09684
2018-03-22 06:40:00+00:00,237.7498,1.2,12.73,47.84626,-54.09684
2018-03-22 06:50:00+00:00,228.6964,1.2,12.81,47.84626,-54.09684
2018-03-22 07:00:00+00:00,215.7481,1.2,12.73,47.84626,-54.09684
2018-03-22 07:10:00+00:00,212.2681,1.2,12.65,47.84626,-54.09684
2018-03-22 07:20:00+00:00,220.7864,1.2,12.73,47.84626,-54.09684
2018-03-22 07:30:00+00:00,216.7248,1.2,12.73,47.84626,-54.09684
2018-03-22 07:40:00+00:00,197.9065,1.2,12.73,47.84626,-54.09684
2018-03-22 07:50:00+00:00,190.3331,1.2,12.73,47.84626,-54.09684
2018-03-22 08:00:00+00:00,186.2431,1.2,12.73,47.84626,-54.09684
2018-03-22 08:10:00+00:00,184.9448,1.2,12.65,47.84626,-54.09684
2018-03-22 08:20:00+00:00,191.1865,1.2,12.73,47.84626,-54.09684
2018-03-22 08:30:00+00:00,194.8265,1.2,12.73,47.84626,-54.09684
2018-03-22 08:40:00+00:00,193.4164,1.2,12.73,47.84626,-54.09684
2018-03-22 08:50:00+00:00,183.6981,1.2,12.73,47.84626,-54.09684
2018-03-22 09:00:00+00:00,184.5149,1.2,12.73,47.84626,-54.09684
2018-03-22 09:10:00+00:00,193.2331,1.2,12.65,47.84626,-54.09684
2018-03-22 09:20:00+00:00,189.4131,1.2,12.73,47.84626,-54.09684
2018-03-22 09:30:00+00:00,187.6714,1.2,12.73,47.84626,-54.09684
2018-03-22 09:40:00+00:00,195.1464,1.22,12.73,47.84626,-54.09684
2018-03-22 09:50:00+00:00,197.1198,1.3,12.73,47.84626,-54.09684
2018-03-22 10:00:00+00:00,201.1214,1.35,12.81,47.84626,-54.09684
2018-03-22 10:10:00+00:00,202.3948,1.3,13.05,47.84626,-54.09684
2018-03-22 10:20:00+00:00,204.6081,1.3,13.21,47.84626,-54.09684
2018-03-22 10:30:00+00:00,220.4897,1.32,13.13,47.84626,-54.09684
2018-03-22 10:40:00+00:00,223.3698,1.3,13.13,47.84626,-54.09684
2018-03-22 10:50:00+00:00,217.0531,1.37,13.05,47.84626,-54.09684
2018-03-22 11:00:00+00:00,220.7747,1.31,12.97,47.84626,-54.09684
2018-03-22 11:10:00+00:00,239.3897,1.3,12.89,47.84626,-54.09684
2018-03-22 11:20:00+00:00,251.8347,1.36,12.97,47.84626,-54.09684
2018-03-22 11:30:00+00:00,255.5914,1.4,13.13,47.84626,-54.09684
2018-03-22 11:40:00+00:00,252.3147,1.24,13.21,47.84626,-54.09684
2018-03-22 11:50:00+00:00,263.0181,1.3,13.29,47.84626,-54.09684
2018-03-22 12:00:00+00:00,264.5948,1.2,13.29,47.84626,-54.09684
2018-03-22 12:10:00+00:00,255.2897,1.19,13.29,47.84626,-54.09684
2018-03-22 12:20:00+00:00,264.1681,1.19,13.37,47.84626,-54.09684
2018-03-22 12:30:00+00:00,294.623,1.2,13.21,47.84626,-54.09684
2018-03-22 12:40:00+00:00,297.358,1.2,13.37,47.84626,-54.09684
2018-03-22 12:50:00+00:00,284.068,1.16,13.21,47.84626,-54.09684
2018-03-22 13:00:00+00:00,306.2797,1.29,13.29,47.84626,-54.09684
2018-03-22 13:10:00+00:00,342.8629,1.26,13.21,47.84626,-54.09684
2018-03-22 13:20:00+00:00,332.563,1.25,13.21,47.84626,-54.09684
2018-03-22 13:30:00+00:00,306.973,1.3,13.29,47.84626,-54.09684
2018-03-22 13:40:00+00:00,326.3314,1.3,13.21,47.84626,-54.09684
2018-03-22 13:50:00+00:00,347.8529,1.3,13.21,47.84626,-54.09684
2018-03-22 14:00:00+00:00,321.7097,1.29,13.21,47.84626,-54.09684
2018-03-22 14:10:00+00:00,319.338,1.29,13.37,47.84626,-54.09684
2018-03-22 14:20:00+00:00,346.7997,1.29,13.37,47.84626,-54.09684
2018-03-22 14:30:00+00:00,354.4213,1.3,13.21,47.84626,-54.09684
2018-03-22 14:40:00+00:00,337.453,1.3,13.21,47.84626,-54.09684
2018-03-22 14:50:00+00:00,338.7163,1.3,13.29,47.84626,-54.09684
2018-03-22 15:00:00+00:00,352.2112,1.3,13.13,47.84626,-54.09684
2018-03-22 15:10:00+00:00,343.9929,1.3,13.13,47.84626,-54.09684
2018-03-22 15:20:00+00:00,331.4746,1.3,13.05,47.84626,-54.09684
2018-03-22 15:30:00+00:00,333.7263,1.3,13.05,47.84626,-54.09684
2018-03-22 15:40:00+00:00,345.5063,1.3,13.21,47.84626,-54.09684
2018-03-22 15:50:00+00:00,323.7596,1.3,13.29,47.84626,-54.09684
2018-03-22 16:00:00+00:00,316.1313,1.3,13.13,47.84626,-54.09684
2018-03-22 16:10:00+00:00,323.2647,1.3,13.21,47.84626,-54.09684
2018-03-22 16:20:00+00:00,330.5013,1.3,13.29,47.84626,-54.09684
2018-03-22 16:30:00+00:00,330.0314,1.3,13.13,47.84626,-54.09684
2018-03-22 16:40:00+00:00,325.4096,1.3,13.05,47.84626,-54.09684
2018-03-22 16:50:00+00:00,328.0846,1.3,13.05,47.84626,-54.09684
2018-03-22 17:00:00+00:00,317.8064,1.31,13.05,47.84626,-54.09684
2018-03-22 17:10:00+00:00,322.0381,1.4,13.05,47.84626,-54.09684
2018-03-22 17:20:00+00:00,316.1263,1.4,13.13,47.84626,-54.09684
2018-03-22 17:30:00+00:00,312.7515,1.39,13.05,47.84626,-54.09684
2018-03-22 17:40:00+00:00,300.6113,1.4,13.05,47.84626,-54.09684
2018-03-22 17:50:00+00:00,290.5013,1.39,13.13,47.84626,-54.09684
2018-03-22 18:00:00+00:00,270.1164,1.4,13.05,47.84626,-54.09684
2018-03-22 18:10:00+00:00,241.4581,1.4,13.05,47.84626,-54.09684
2018-03-22 18:20:00+00:00,238.9214,1.4,13.21,47.84626,-54.09684
2018-03-22 18:30:00+00:00,270.2231,1.4,13.05,47.84626,-54.09684
2018-03-22 18:40:00+00:00,258.2531,1.4,13.05,47.84626,-54.09684
2018-03-22 18:50:00+00:00,231.6214,1.4,13.05,47.84626,-54.09684
2018-03-22 19:00:00+00:00,235.2948,1.4,13.05,47.84626,-54.09684
2018-03-22 19:10:00+00:00,234.5797,1.4,12.97,47.84626,-54.09684
2018-03-22 19:20:00+00:00,211.5081,1.4,13.05,47.84626,-54.09684
2018-03-22 19:30:00+00:00,194.9897,1.4,13.05,47.84626,-54.09684
2018-03-22 19:40:00+00:00,201.4365,1.4,13.05,47.84626,-54.09684
2018-03-22 19:50:00+00:00,207.7064,1.4,13.05,47.84626,-54.09684
2018-03-22 20:00:00+00:00,194.4514,1.4,12.97,47.84626,-54.09684
2018-03-22 20:10:00+00:00,175.7914,1.4,12.89,47.84626,-54.09684
2018-03-22 20:20:00+00:00,190.6914,1.4,12.97,47.84626,-54.09684
2018-03-22 20:30:00+00:00,202.9498,1.4,12.97,47.84626,-54.09684
2018-03-22 20:40:00+00:00,194.2098,1.4,12.97,47.84626,-54.09684
2018-03-22 20:50:00+00:00,199.8514,1.4,12.97,47.84626,-54.09684
2018-03-22 21:00:00+00:00,219.8198,1.4,12.81,47.84626,-54.09684
2018-03-22 21:10:00+00:00,218.8597,1.4,12.81,47.84626,-54.09684
2018-03-22 21:20:00+00:00,206.1531,1.4,12.89,47.84626,-54.09684
2018-03-22 21:30:00+00:00,199.3481,1.4,12.89,47.84626,-54.09684
2018-03-22 21:40:00+00:00,202.1165,1.4,12.89,47.84626,-54.09684
2018-03-22 21:50:00+00:00,215.8864,1.4,12.89,47.84626,-54.09684
2018-03-22 22:00:00+00:00,226.3514,1.4,12.81,47.84626,-54.09684
2018-03-22 22:10:00+00:00,228.6098,1.4,12.73,47.84626,-54.09684
2018-03-22 22:20:00+00:00,242.9998,1.4,12.81,47.84626,-54.09684
2018-03-22 22:30:00+00:00,254.2597,1.4,12.81,47.84626,-54.09684
2018-03-22 22:40:00+00:00,255.0264,1.4,12.81,47.84626,-54.09684
2018-03-22 22:50:00+00:00,260.5714,1.4,12.81,47.84626,-54.09684
2018-03-22 23:00:00+00:00,265.3897,1.4,12.81,47.84626,-54.09684
2018-03-22 23:10:00+00:00,277.0164,1.4,12.73,47.84626,-54.09684
2018-03-22 23:20:00+00:00,271.1898,1.4,12.81,47.84626,-54.09684
2018-03-22 23:30:00+00:00,275.4064,1.4,12.81,47.84626,-54.09684
2018-03-22 23:40:00+00:00,289.3831,1.4,12.81,47.84626,-54.09684
2018-03-22 23:50:00+00:00,291.278,1.4,12.81,47.84626,-54.09684
